• En Colombia
  • Lista de países
  • Para 7 días
  • Temperatura del agua
  • El tiempo en el mapa
  • Informadores
  • user-avatar
    Iniciar sesión

    Tiempo cada hora Fier

    Hoy, 20 Enero, Lunes

    Tiempo Temperatura Precipitaciones Viento Presión Humedad
    00:00 +8°C° 0 mm 2 mps 770 mmHg 76%
    01:00 +8°C° 0 mm 3 mps 770 mmHg 76%
    02:00 +8°C° 0 mm 3 mps 771 mmHg 75%
    03:00 +7°C° 0 mm 3 mps 771 mmHg 75%
    04:00 +7°C° 0 mm 3 mps 771 mmHg 74%
    05:00 +7°C° 0 mm 3 mps 772 mmHg 73%
    06:00 +5°C° 0 mm 3 mps 772 mmHg 73%
    07:00 +5°C° 0 mm 3 mps 773 mmHg 72%
    08:00 +8°C° 0 mm 3 mps 773 mmHg 68%
    09:00 +9°C° 0 mm 3 mps 774 mmHg 65%
    10:00 +10°C° 0 mm 2 mps 774 mmHg 61%
    11:00 +12°C° 0 mm 2 mps 774 mmHg 58%
    12:00 +13°C° 0 mm 2 mps 775 mmHg 55%
    13:00 +14°C° 0 mm 2 mps 775 mmHg 51%
    14:00 +13°C° 0 mm 2 mps 775 mmHg 54%
    15:00 +13°C° 0 mm 2 mps 775 mmHg 57%
    16:00 +12°C° 0 mm 2 mps 775 mmHg 60%
    17:00 +10°C° 0 mm 2 mps 776 mmHg 62%
    18:00 +10°C° 0 mm 2 mps 776 mmHg 63%
    19:00 +9°C° 0 mm 2 mps 777 mmHg 65%
    20:00 +8°C° 0 mm 2 mps 777 mmHg 65%
    21:00 +8°C° 0 mm 2 mps 778 mmHg 64%
    22:00 +7°C° 0 mm 3 mps 778 mmHg 64%
    23:00 +7°C° 0 mm 3 mps 778 mmHg 63%

    Mañana, 21 Enero, Martes

    Tiempo Temperatura Precipitaciones Viento Presión Humedad
    00:00 +5°C° 0 mm 3 mps 778 mmHg 63%
    01:00 +5°C° 0 mm 3 mps 778 mmHg 62%
    02:00 +5°C° 0 mm 3 mps 778 mmHg 61%
    03:00 +6°C° 0 mm 2 mps 778 mmHg 60%
    04:00 +5°C° 0 mm 2 mps 778 mmHg 59%
    05:00 +5°C° 0 mm 2 mps 778 mmHg 57%
    06:00 +5°C° 0 mm 2 mps 778 mmHg 56%
    07:00 +5°C° 0 mm 2 mps 778 mmHg 54%
    08:00 +6°C° 0 mm 2 mps 778 mmHg 50%
    09:00 +8°C° 0 mm 2 mps 778 mmHg 46%
    10:00 +9°C° 0 mm 2 mps 778 mmHg 42%
    11:00 +10°C° 0 mm 2 mps 777 mmHg 41%
    12:00 +12°C° 0 mm 2 mps 777 mmHg 39%
    13:00 +13°C° 0 mm 2 mps 776 mmHg 38%
    14:00 +11°C° 0 mm 3 mps 776 mmHg 43%
    15:00 +10°C° 0 mm 3 mps 776 mmHg 49%
    16:00 +10°C° 0 mm 3 mps 776 mmHg 54%
    17:00 +9°C° 0 mm 3 mps 776 mmHg 55%
    18:00 +8°C° 0 mm 2 mps 775 mmHg 57%
    19:00 +7°C° 0 mm 2 mps 775 mmHg 59%
    20:00 +6°C° 0 mm 2 mps 775 mmHg 58%
    21:00 +6°C° 0 mm 2 mps 775 mmHg 58%
    22:00 +6°C° 0 mm 2 mps 775 mmHg 58%
    23:00 +6°C° 0 mm 2 mps 775 mmHg 57%

    Pasado mañana, 22 Enero, Miércoles

    Tiempo Temperatura Precipitaciones Viento Presión Humedad
    00:00 +5°C° 0 mm 2 mps 774 mmHg 57%
    01:00 +6°C° 0 mm 1 mps 774 mmHg 57%
    02:00 +6°C° 0 mm 1 mps 774 mmHg 56%
    03:00 +6°C° 0 mm 1 mps 773 mmHg 55%
    04:00 +6°C° 0 mm 1 mps 773 mmHg 55%
    05:00 +6°C° 0 mm 1 mps 773 mmHg 53%
    06:00 +6°C° 0 mm 1 mps 773 mmHg 52%
    07:00 +5°C° 0 mm 1 mps 773 mmHg 51%
    08:00 +7°C° 0 mm 1 mps 773 mmHg 48%
    09:00 +9°C° 0 mm 1 mps 773 mmHg 44%
    10:00 +10°C° 0 mm 1 mps 773 mmHg 41%
    11:00 +11°C° 0 mm 1 mps 772 mmHg 43%
    12:00 +12°C° 0 mm 1 mps 772 mmHg 44%
    13:00 +13°C° 0 mm 2 mps 771 mmHg 45%
    14:00 +12°C° 0 mm 2 mps 771 mmHg 50%
    15:00 +12°C° 0 mm 2 mps 770 mmHg 55%
    16:00 +10°C° 0 mm 2 mps 770 mmHg 60%
    17:00 +9°C° 0 mm 2 mps 770 mmHg 63%
    18:00 +9°C° 0 mm 1 mps 769 mmHg 66%
    19:00 +8°C° 0 mm 1 mps 769 mmHg 69%
    20:00 +8°C° 0 mm 1 mps 769 mmHg 69%
    21:00 +7°C° 0 mm 1 mps 769 mmHg 68%
    22:00 +7°C° 0 mm 1 mps 769 mmHg 68%
    23:00 +7°C° 0 mm 1 mps 769 mmHg 67%

    23 Enero, Jueves

    Tiempo Temperatura Precipitaciones Viento Presión Humedad
    00:00 +7°C° 0 mm 1 mps 769 mmHg 66%
    01:00 +6°C° 0 mm 2 mps 769 mmHg 64%
    02:00 +5°C° 0 mm 2 mps 769 mmHg 65%
    03:00 +5°C° 0 mm 2 mps 769 mmHg 66%
    04:00 +5°C° 0 mm 2 mps 768 mmHg 66%
    05:00 +5°C° 0 mm 2 mps 768 mmHg 67%
    06:00 +5°C° 0 mm 2 mps 768 mmHg 69%
    07:00 +5°C° 0 mm 2 mps 768 mmHg 70%
    08:00 +6°C° 0 mm 2 mps 768 mmHg 66%
    09:00 +9°C° 0 mm 1 mps 768 mmHg 61%
    10:00 +11°C° 0 mm 1 mps 768 mmHg 57%
    11:00 +10°C° 0 mm 2 mps 768 mmHg 54%
    12:00 +12°C° 0 mm 2 mps 768 mmHg 51%
    13:00 +12°C° 0 mm 3 mps 768 mmHg 48%
    14:00 +12°C° 0 mm 3 mps 768 mmHg 51%
    15:00 +11°C° 0 mm 3 mps 768 mmHg 54%
    16:00 +11°C° 0 mm 3 mps 768 mmHg 57%
    17:00 +10°C° 0 mm 3 mps 768 mmHg 58%
    18:00 +9°C° 0 mm 2 mps 769 mmHg 59%
    19:00 +8°C° 0 mm 2 mps 769 mmHg 59%
    20:00 +8°C° 0 mm 2 mps 770 mmHg 58%
    21:00 +8°C° 0 mm 2 mps 770 mmHg 58%
    22:00 +8°C° 0 mm 2 mps 770 mmHg 57%
    23:00 +7°C° 0 mm 2 mps 770 mmHg 57%

    24 Enero, Viernes

    Tiempo Temperatura Precipitaciones Viento Presión Humedad
    00:00 +7°C° 0 mm 2 mps 771 mmHg 57%
    01:00 +7°C° 0 mm 3 mps 771 mmHg 56%
    02:00 +7°C° 0 mm 3 mps 771 mmHg 57%
    03:00 +7°C° 0 mm 3 mps 771 mmHg 57%
    04:00 +5°C° 0 mm 3 mps 771 mmHg 57%
    05:00 +5°C° 0 mm 3 mps 771 mmHg 57%
    06:00 +5°C° 0 mm 3 mps 771 mmHg 58%
    07:00 +5°C° 0 mm 3 mps 772 mmHg 58%
    08:00 +8°C° 0 mm 3 mps 772 mmHg 56%
    09:00 +10°C° 0 mm 3 mps 772 mmHg 54%
    10:00 +11°C° 0 mm 3 mps 773 mmHg 52%
    11:00 +12°C° 0 mm 3 mps 772 mmHg 51%
    12:00 +13°C° 0 mm 3 mps 772 mmHg 50%
    13:00 +14°C° 0 mm 3 mps 771 mmHg 49%
    14:00 +13°C° 0 mm 3 mps 771 mmHg 52%
    15:00 +13°C° 0 mm 3 mps 771 mmHg 56%
    16:00 +12°C° 0 mm 3 mps 771 mmHg 60%
    17:00 +11°C° 0 mm 3 mps 771 mmHg 63%
    18:00 +10°C° 0 mm 3 mps 771 mmHg 66%
    19:00 +9°C° 0 mm 3 mps 771 mmHg 69%
    20:00 +9°C° 0 mm 3 mps 771 mmHg 71%
    21:00 +9°C° 0 mm 3 mps 771 mmHg 72%
    22:00 +8°C° 0 mm 4 mps 771 mmHg 74%
    23:00 +9°C° 0 mm 3 mps 770 mmHg 75%

    25 Enero, Sábado

    Tiempo Temperatura Precipitaciones Viento Presión Humedad
    00:00 +9°C° 0 mm 3 mps 770 mmHg 76%
    01:00 +8°C° 0 mm 3 mps 770 mmHg 77%
    02:00 +7°C° 0 mm 4 mps 770 mmHg 77%
    03:00 +7°C° 0 mm 4 mps 769 mmHg 78%
    04:00 +7°C° 0 mm 4 mps 769 mmHg 78%
    05:00 +7°C° 0 mm 4 mps 769 mmHg 78%
    06:00 +7°C° 0 mm 4 mps 769 mmHg 78%
    07:00 +7°C° 0 mm 4 mps 769 mmHg 79%
    08:00 +10°C° 0 mm 4 mps 769 mmHg 76%
    09:00 +11°C° 0 mm 4 mps 769 mmHg 72%
    10:00 +12°C° 0 mm 4 mps 769 mmHg 69%
    11:00 +13°C° 0 mm 5 mps 769 mmHg 67%
    12:00 +14°C° 0 mm 5 mps 768 mmHg 66%
    13:00 +15°C° 0 mm 5 mps 768 mmHg 64%
    14:00 +14°C° 0.1 mm 5 mps 768 mmHg 68%
    15:00 +14°C° 0.1 mm 5 mps 767 mmHg 72%
    16:00 +13°C° 0.1 mm 5 mps 767 mmHg 76%
    17:00 +13°C° 0 mm 5 mps 767 mmHg 78%
    18:00 +12°C° 0 mm 4 mps 767 mmHg 80%
    19:00 +11°C° 0 mm 4 mps 767 mmHg 81%
    20:00 +11°C° 0 mm 4 mps 768 mmHg 82%
    21:00 +11°C° 0 mm 4 mps 768 mmHg 82%
    22:00 +11°C° 0 mm 4 mps 768 mmHg 82%
    23:00 +10°C° 0 mm 4 mps 768 mmHg 82%
    Mostrar más